Regional Weather Roundup
Issued by NWS Newport/Morehead, NC

Current Version | Previous Version | Text Only | Print | Product List | Glossary On
Versions: 1 2 3 4 5 6 7 8 9 10 11 12 13 14 15 16 17 18 19 20 21 22 23 24 25 26 27 28 29 30 31 32 33 34 35 36 37 38 39 40 41 42 43 44 45 46 47 48 49 50
000
ASUS42 KMHX 221312
RWRMHX
WEATHER ROUNDUP FOR EASTERN NORTH CAROLINA
NATIONAL WEATHER SERVICE NEWPORT/MOREHEAD CITY NC
900 AM EDT FRI MAY 22 2015

NOTE: "FAIR" INDICATES FEW OR NO CLOUDS BELOW 12,000 FEET
WITH NO SIGNIFICANT WEATHER AND/OR OBSTRUCTIONS TO VISIBILITY

NCZ015>017-031-032-045>047-102-103-221400-
NORTH COAST

CITY           SKY/WX    TMP DP  RH WIND       PRES   REMARKS
EDENTON        SUNNY     60  49  65 N14G22    30.13R
ELIZABETH CITY SUNNY     60  48  64 NW16      30.11R
KITTY HAWK     PTSUNNY   61  50  69 N6G16     30.10R
MANTEO         CLOUDY    59  51  76 NW8G17    30.12R

$$

NCZ045>047-081-094-103-104-221400-
CENTRAL COAST

CITY           SKY/WX    TMP DP  RH WIND       PRES   REMARKS
FRISCO         MOSUNNY   62  50  64 N8G22     30.10R
SWANQUARTER      N/A     61 N/A N/A VRB12G17  30.09S

$$

NCZ095-097-098-100-101-221400-
SOUTHERN COAST

CITY           SKY/WX    TMP DP  RH WIND       PRES   REMARKS
BEAUFORT       CLOUDY    62  54  74 N13       30.13R
CEDAR ISLAND     N/A     63 N/A N/A NW13G25   30.15S
JACKSONVILLE   CLOUDY    61  53  75 N12       30.14R
PINEY ISLAND   MOSUNNY  N/A N/A N/A N18       30.12R
WILMINGTON     PTSUNNY   63  54  72 N15       30.14R


$$

NCZ011>013-027>030-043-044-078>080-089-090>093-098-221400-
COASTAL PLAIN

CITY           SKY/WX    TMP DP  RH WIND       PRES   REMARKS
AHOSKIE        SUNNY     59  46  62 N7        30.15R
CLINTON        SUNNY     63  51  66 N13       30.16R
ELIZABETHTOWN  PTSUNNY   63  50  63 N5        30.16R
GOLDSBORO      MOSUNNY   62  50  65 NE10G17   30.14R
GREENVILLE     PTSUNNY   61  52  72 N9        30.16R
HAVELOCK       CLOUDY    62  51  67 N13       30.14R
KENANSVILLE    CLOUDY    59  54  81 N6        30.16R
KINSTON        SUNNY     61  52  72 N14       30.16R
NEW BERN       CLOUDY    62  52  69 N7        30.16R
RICHLANDS      PTSUNNY   61  50  67 N8        30.15R
ROCKY MOUNT    SUNNY     62  48  60 N12       30.16R
WASHINGTON     MOSUNNY  N/A N/A N/A N10       30.15R
WHITEVILLE     PTSUNNY   63  52  67 NE6       30.15R

$$

AMZ130-135-150-152-154-156-158-170-250-252-270-ANZ085-086-088-633-658-670-221400-
MARINE OBSERVATIONS

STATION/POSITION TIME  TEMP    WIND        PRES    WAVE   SWELL
                       AIR SEA DIR/SP/G            HT/PER HT/PER
                 (UTC) (F)     (DEG/KT/KT) (MB)    (FT/S) (FT/S)
CHESAPEAKE LIGHT 1200   58     330/ 22/ 24 1018.5
64 E VA BEACH    1250   59 59  340/ 16/ 17 1017.6    6/ 6   3/ 7
DUCK             1200   58 66  340/ 19/ 22 1017.3
2 E DUCK         1211      64                N/A     4/ 7
OREGON INLET     1200   59 68  320/ 10/ 15 1018.6
13E OREGON INLT  1300      62                N/A     6/ 7
HATTERAS CG      1200   62 72  340/ 17/ 19 1018.0
DIAMOND BUOY     1250   63 76  360/ 16/ 19 1018.8    5/ 7   2/13
CAPE LOOKOUT     1300   62     360/ 14/ 17 1019.8
BEAUFORT LAB     1200   61 74   10/ 15/ 18 1018.6
27 SE WRIGHTSVLE 1200   62 77   30/ 16/ 19   N/A
5 SE WRIGHTSVLE  1208   63 76   20/ 17/ 23 1019.5
225 S CAPE HAT   1250   76 75  240/ 12/ 14 1016.8    4/ 7   3/ 7
41 SE CHARLESTON 1250   69 76   30/ 23/ 27 1017.9    6/ 6   2/11

$$


USA.gov is the U.S. government's official web portal to all federal, state and local government web resources and services.